TimeCDT,TemperatureF,Dew PointF,Humidity,Sea Level PressureIn,VisibilityMPH,Wind Direction,Wind SpeedMPH,Gust SpeedMPH,PrecipitationIn,Events,Conditions,WindDirDegrees,DateUTC
12:53 AM,60.1,57.0,90,30.01,10.0,SSW,3.5,-,N/A,,Clear,210,2013-05-08 05:53:00
1:53 AM,59.0,57.0,93,30.00,10.0,Calm,Calm,-,N/A,,Clear,0,2013-05-08 06:53:00
2:53 AM,59.0,55.9,90,30.01,10.0,WSW,3.5,-,N/A,,Clear,240,2013-05-08 07:53:00
3:53 AM,57.9,55.9,93,30.01,10.0,SW,3.5,-,N/A,,Clear,230,2013-05-08 08:53:00
4:53 AM,57.9,55.9,93,30.01,8.0,WSW,3.5,-,N/A,,Clear,250,2013-05-08 09:53:00
5:53 AM,57.0,55.0,93,30.02,7.0,Calm,Calm,-,N/A,,Clear,0,2013-05-08 10:53:00
6:53 AM,57.9,55.9,93,30.04,6.0,Calm,Calm,-,N/A,,Clear,0,2013-05-08 11:53:00
7:53 AM,63.0,60.1,90,30.06,10.0,SW,3.5,-,N/A,,Clear,230,2013-05-08 12:53:00
8:53 AM,68.0,60.1,76,30.07,10.0,WNW,4.6,-,N/A,,Clear,290,2013-05-08 13:53:00
9:53 AM,72.0,59.0,64,30.08,10.0,WNW,8.1,-,N/A,,Clear,290,2013-05-08 14:53:00
10:53 AM,75.0,55.9,51,30.08,10.0,Calm,Calm,-,N/A,,Clear,0,2013-05-08 15:53:00
11:53 AM,77.0,57.9,52,30.08,10.0,Calm,Calm,-,N/A,,Clear,0,2013-05-08 16:53:00
12:53 PM,75.9,57.9,54,30.06,10.0,West,5.8,-,N/A,,Partly Cloudy,260,2013-05-08 17:53:00
1:53 PM,77.0,57.0,50,30.06,10.0,Calm,Calm,-,N/A,,Clear,0,2013-05-08 18:53:00
2:53 PM,78.1,55.9,46,30.04,10.0,SW,5.8,-,N/A,,Partly Cloudy,220,2013-05-08 19:53:00
3:53 PM,80.1,57.0,45,30.02,10.0,Variable,4.6,-,N/A,,Scattered Clouds,0,2013-05-08 20:53:00
4:53 PM,79.0,57.0,47,30.02,10.0,Variable,3.5,-,N/A,,Scattered Clouds,0,2013-05-08 21:53:00
5:53 PM,77.0,57.0,50,30.01,10.0,SW,4.6,-,N/A,,Clear,220,2013-05-08 22:53:00
6:53 PM,75.0,59.0,57,30.00,10.0,South,5.8,-,N/A,,Clear,180,2013-05-08 23:53:00
7:53 PM,73.0,60.1,64,30.00,10.0,South,4.6,-,N/A,,Clear,180,2013-05-09 00:53:00
8:53 PM,71.1,60.1,68,30.01,10.0,South,5.8,-,N/A,,Clear,190,2013-05-09 01:53:00
9:53 PM,69.1,60.1,73,30.03,10.0,South,3.5,-,N/A,,Clear,190,2013-05-09 02:53:00
10:53 PM,69.1,59.0,70,30.01,10.0,South,4.6,-,N/A,,Partly Cloudy,180,2013-05-09 03:53:00
11:53 PM,66.0,57.9,75,30.01,10.0,South,4.6,-,N/A,,Clear,170,2013-05-09 04:53:00